Date,TemperatureHighF,TemperatureAvgF,TemperatureLowF,DewpointHighF,DewpointAvgF,DewpointLowF,HumidityHigh,HumidityAvg,HumidityLow,PressureMaxIn,PressureMinIn,WindSpeedMaxMPH,WindSpeedAvgMPH,GustSpeedMaxMPH,PrecipitationSumIn
2013-4-1,26.0,22.0,19.0,20.0,10.7,4.0,90,63,40,30.05,29.82,10,4,27,0.01
2013-4-2,29.0,25.1,19.0,13.0,9.0,5.0,61,50,35,30.25,30.04,9,3,19,0.00
2013-4-3,39.0,29.0,21.0,23.0,12.0,6.0,68,49,27,30.40,30.08,5,2,16,0.00
2013-4-4,43.0,36.7,33.0,29.0,22.3,13.0,70,56,43,30.08,29.87,10,2,21,0.00
2013-4-5,33.0,29.3,27.0,24.0,15.7,13.0,69,57,49,30.25,30.05,9,4,16,0.00
2013-4-6,37.0,31.2,26.0,33.0,25.0,14.0,94,78,58,30.17,29.52,4,1,17,0.26
2013-4-7,36.0,33.3,30.0,32.0,29.2,27.0,96,85,69,29.98,29.49,8,3,21,0.33
2013-4-8,34.0,32.0,29.0,33.0,29.9,26.0,96,92,87,30.01,29.85,2,0,6,0.28
2013-4-9,36.0,33.0,31.0,34.0,29.7,23.0,96,88,72,30.20,30.01,9,3,19,0.12
2013-4-10,36.0,33.2,31.0,26.0,24.0,22.0,77,69,60,30.22,30.13,10,6,18,0.01
2013-4-11,34.0,31.3,29.0,28.0,22.0,18.0,88,69,59,30.16,29.86,12,7,23,0.00
2013-4-12,30.0,28.3,27.0,28.0,26.8,26.0,96,94,89,29.88,29.67,10,5,23,0.14
2013-4-13,33.0,29.7,26.0,30.0,25.9,21.0,95,86,69,29.90,29.67,9,2,18,0.28
2013-4-14,40.0,33.2,28.0,31.0,27.0,22.0,96,78,62,30.01,29.89,7,2,16,0.03
2013-4-15,55.0,40.4,32.0,38.0,30.3,22.0,96,72,33,29.89,29.58,8,2,22,0.75
2013-4-16,44.0,38.4,34.0,31.0,27.2,25.0,87,64,51,30.34,29.78,8,2,19,0.05
2013-4-17,37.0,33.7,31.0,31.0,29.5,27.0,92,84,78,30.42,30.07,5,2,10,0.00
2013-4-18,36.0,34.4,33.0,35.0,32.8,30.0,98,95,82,30.08,29.33,8,3,14,0.66
2013-4-19,36.0,30.3,22.0,35.0,28.2,17.0,98,91,72,29.72,29.02,16,6,35,0.51
2013-4-20,31.0,24.4,20.0,19.0,15.3,13.0,89,69,53,30.42,29.72,10,4,26,0.02
2013-4-21,44.0,33.1,22.0,26.0,18.9,12.0,76,57,33,30.49,30.19,7,2,22,0.01
2013-4-22,42.0,36.9,33.0,37.0,32.7,27.0,96,85,65,30.21,30.10,6,2,19,0.52
2013-4-23,35.0,33.5,31.0,32.0,30.7,25.0,97,90,73,30.15,29.86,8,3,17,0.35
2013-4-24,43.0,35.8,28.0,28.0,22.2,18.0,82,59,43,29.96,29.87,4,1,8,0.01
2013-4-25,46.0,37.6,32.0,35.0,27.4,18.0,96,68,41,30.18,29.83,8,2,16,0.15
2013-4-26,59.0,43.0,33.0,36.0,30.1,22.0,85,61,40,30.19,30.03,8,1,21,0.01
2013-4-27,64.0,50.8,37.0,47.0,38.7,33.0,85,64,45,30.12,29.93,4,1,17,0.01
2013-4-28,71.0,60.3,50.0,45.0,40.2,32.0,74,50,31,29.93,29.69,5,2,18,0.00
2013-4-29,64.0,54.8,47.0,52.0,45.3,33.0,95,72,43,29.75,29.69,5,1,14,0.08
2013-4-30,69.0,58.2,46.0,55.0,49.9,43.0,91,75,54,29.78,29.54,9,3,38,0.09